Location: Observatoire du C�gep de Trois-Rivi�res � Champlain
(46.4753°N, 72.3231°W)
Time: 12:01:31
(UTC-04:00)

N. Korean satellite - Visible Passes

Search period start: 20 October 2017 00:00
Search period end: 30 October 2017 00:00
Orbit: 459 x 517 km, 97.2° (Epoch: 19 October)

Date Brightness Start Highest point End Pass type
(mag) Time Alt. Az. Time Alt. Az. Time Alt. Az.
20 Oct 6.4 18:39:27 10° SSE 18:42:57 72° ENE 18:46:26 10° N visible
21 Oct 7.1 18:16:26 10° SE 18:19:40 36° ENE 18:22:53 10° N visible
21 Oct 9.8 19:51:12 10° SW 19:53:21 15° W 19:55:30 10° NW visible
22 Oct 8.7 19:26:48 10° SSW 19:29:51 28° W 19:32:54 10° NW visible
23 Oct 7.3 19:03:00 10° S 19:06:26 55° W 19:09:50 10° NNW visible
24 Oct 6.4 18:39:37 10° SSE 18:43:04 73° ENE 18:46:32 10° N visible
25 Oct 7.0 18:16:34 10° SE 18:19:47 36° ENE 18:23:00 10° N visible
25 Oct 9.8 19:51:24 10° SW 19:53:28 15° W 19:55:33 10° NW visible
26 Oct 8.7 19:26:57 10° SSW 19:29:58 27° W 19:32:58 10° NW visible
27 Oct 9.8 06:51:34 10° NE 06:54:05 18° E 06:56:37 10° SE visible
27 Oct 7.3 19:03:07 10° S 19:06:31 54° W 19:09:55 10° NNW visible
28 Oct 6.3 18:39:41 10° SSE 18:43:08 74° ENE 18:46:36 10° N visible
29 Oct 7.0 18:16:38 10° SE 18:19:50 36° ENE 18:23:02 10° N visible
29 Oct 9.8 19:51:30 10° SW 19:53:32 15° W 19:55:34 10° NW visible
